Time,TemperatureF,DewpointF,PressureIn,WindDirection,WindDirectionDegrees,WindSpeedMPH,WindSpeedGustMPH,Humidity,HourlyPrecipIn,Conditions,Clouds,dailyrainin,SolarRadiationWatts/m^2,SoftwareType,DateUTC
2014-09-23 00:00:00,50.2,29.6,30.30,West,270,0.0,0.0,45,0.00,CLR,,0.00,0.0,WeatherDisplay:10.37,2014-09-23 04:00:00,
2014-09-23 00:05:00,50.2,29.6,30.30,West,270,0.0,0.0,45,0.00,CLR,,0.00,0.0,WeatherDisplay:10.37,2014-09-23 04:05:00,
2014-09-23 00:10:00,50.4,29.8,30.30,West,270,1.6,2.3,45,0.00,CLR,,0.00,0.0,WeatherDisplay:10.37,2014-09-23 04:10:00,
2014-09-23 00:15:00,50.4,30.3,30.30,West,270,1.2,2.3,46,0.00,CLR,,0.00,0.0,WeatherDisplay:10.37,2014-09-23 04:15:00,
2014-09-23 00:20:00,50.2,30.2,30.30,West,270,1.4,2.3,46,0.00,CLR,,0.00,0.0,WeatherDisplay:10.37,2014-09-23 04:20:00,
2014-09-23 00:25:00,50.2,30.2,30.30,West,270,0.0,0.9,46,0.00,CLR,,0.00,0.0,WeatherDisplay:10.37,2014-09-23 04:25:00,
2014-09-23 00:30:00,50.2,30.2,30.30,West,270,0.0,1.6,46,0.00,CLR,,0.00,0.0,WeatherDisplay:10.37,2014-09-23 04:30:00,
2014-09-23 00:35:00,50.2,30.2,30.30,West,270,1.2,1.2,46,0.00,CLR,,0.00,0.0,WeatherDisplay:10.37,2014-09-23 04:35:00,
2014-09-23 00:40:00,50.2,30.2,30.30,West,270,1.4,1.4,46,0.00,CLR,,0.00,0.0,WeatherDisplay:10.37,2014-09-23 04:40:00,
2014-09-23 00:45:00,50.2,30.2,30.30,West,270,1.4,2.3,46,0.00,CLR,,0.00,0.0,WeatherDisplay:10.37,2014-09-23 04:45:00,
2014-09-23 00:50:00,50.2,30.2,30.30,West,270,0.0,0.0,46,0.00,CLR,,0.00,0.0,WeatherDisplay:10.37,2014-09-23 04:50:00,
2014-09-23 00:55:00,50.2,30.2,30.30,West,270,0.0,0.0,46,0.00,CLR,,0.00,0.0,WeatherDisplay:10.37,2014-09-23 04:55:00,
2014-09-23 01:00:00,50.2,30.2,30.30,West,270,0.0,1.4,46,0.00,CLR,,0.00,0.0,WeatherDisplay:10.37,2014-09-23 05:00:00,
2014-09-23 01:05:00,50.2,30.2,30.30,West,270,0.0,2.0,46,0.00,CLR,,0.00,0.0,WeatherDisplay:10.37,2014-09-23 05:05:00,
2014-09-23 01:10:00,50.0,30.0,30.30,West,270,1.2,1.2,46,0.00,CLR,,0.00,0.0,WeatherDisplay:10.37,2014-09-23 05:10:00,
2014-09-23 01:16:00,50.0,30.0,30.30,West,270,0.0,0.0,46,0.00,CLR,,0.00,0.0,WeatherDisplay:10.37,2014-09-23 05:16:00,
2014-09-23 01:21:00,50.0,30.0,30.27,West,270,0.0,1.6,46,0.00,CLR,,0.00,0.0,WeatherDisplay:10.37,2014-09-23 05:21:00,
2014-09-23 01:26:00,50.0,30.0,30.27,West,270,0.0,0.0,46,0.00,CLR,,0.00,0.0,WeatherDisplay:10.37,2014-09-23 05:26:00,
2014-09-23 01:31:00,49.8,30.4,30.27,West,270,1.6,2.3,47,0.00,CLR,,0.00,0.0,WeatherDisplay:10.37,2014-09-23 05:31:00,
2014-09-23 01:36:00,49.8,30.4,30.30,West,270,1.6,2.4,47,0.00,CLR,,0.00,0.0,WeatherDisplay:10.37,2014-09-23 05:36:00,
2014-09-23 01:41:00,49.8,30.4,30.30,West,270,1.2,1.2,47,0.00,CLR,,0.00,0.0,WeatherDisplay:10.37,2014-09-23 05:41:00,
2014-09-23 01:46:00,49.6,30.2,30.30,West,270,0.0,2.0,47,0.00,CLR,,0.00,0.0,WeatherDisplay:10.37,2014-09-23 05:46:00,
2014-09-23 01:51:00,49.6,30.2,30.30,West,270,0.0,0.0,47,0.00,CLR,,0.00,0.0,WeatherDisplay:10.37,2014-09-23 05:51:00,
2014-09-23 01:53:00,49.5,30.0,30.30,West,270,1.2,1.2,47,0.00,CLR,,0.00,0.0,WeatherDisplay:10.37,2014-09-23 05:53:00,
2014-09-23 01:58:00,49.5,30.0,30.30,West,270,0.0,0.0,47,0.00,CLR,,0.00,0.0,WeatherDisplay:10.37,2014-09-23 05:58:00,
2014-09-23 02:03:00,49.5,30.0,30.30,West,270,0.0,0.0,47,0.00,CLR,,0.00,0.0,WeatherDisplay:10.37,2014-09-23 06:03:00,
2014-09-23 02:08:00,49.3,29.9,30.30,West,270,0.0,0.0,47,0.00,CLR,,0.00,0.0,WeatherDisplay:10.37,2014-09-23 06:08:00,
2014-09-23 02:13:00,49.3,29.9,30.30,West,270,0.0,0.0,47,0.00,CLR,,0.00,0.0,WeatherDisplay:10.37,2014-09-23 06:13:00,
2014-09-23 02:18:00,49.5,30.6,30.33,West,270,0.0,0.0,48,0.00,CLR,,0.00,0.0,WeatherDisplay:10.37,2014-09-23 06:18:00,
2014-09-23 02:23:00,49.5,30.6,30.33,West,270,0.0,0.0,48,0.00,CLR,,0.00,0.0,WeatherDisplay:10.37,2014-09-23 06:23:00,
2014-09-23 02:28:00,49.5,30.6,30.33,WNW,292,0.0,0.0,48,0.00,CLR,,0.00,0.0,WeatherDisplay:10.37,2014-09-23 06:28:00,
2014-09-23 02:33:00,49.3,30.4,30.27,WNW,292,2.0,3.5,48,0.00,CLR,,0.00,0.0,WeatherDisplay:10.37,2014-09-23 06:33:00,
2014-09-23 02:38:00,49.3,30.4,30.27,WNW,292,1.4,1.4,48,0.00,CLR,,0.00,0.0,WeatherDisplay:10.37,2014-09-23 06:38:00,
2014-09-23 02:43:00,49.3,30.4,30.27,WNW,292,0.0,0.0,48,0.00,CLR,,0.00,0.0,WeatherDisplay:10.37,2014-09-23 06:43:00,
2014-09-23 02:48:00,49.3,30.4,30.30,WNW,292,0.0,1.6,48,0.00,CLR,,0.00,0.0,WeatherDisplay:10.37,2014-09-23 06:48:00,
2014-09-23 02:53:00,49.1,30.2,30.30,WNW,292,0.0,1.2,48,0.00,CLR,,0.00,0.0,WeatherDisplay:10.37,2014-09-23 06:53:00,
2014-09-23 02:58:00,49.1,30.2,30.30,WNW,292,0.0,0.0,48,0.00,CLR,,0.00,0.0,WeatherDisplay:10.37,2014-09-23 06:58:00,
2014-09-23 03:03:00,48.9,30.1,30.30,WNW,292,0.0,1.2,48,0.00,CLR,,0.00,0.0,WeatherDisplay:10.37,2014-09-23 07:03:00,
2014-09-23 03:08:00,48.7,29.9,30.30,WNW,292,1.2,2.3,48,0.00,CLR,,0.00,0.0,WeatherDisplay:10.37,2014-09-23 07:08:00,
2014-09-23 03:13:00,48.7,29.9,30.30,WNW,292,2.0,2.3,48,0.00,CLR,,0.00,0.0,WeatherDisplay:10.37,2014-09-23 07:13:00,
2014-09-23 03:18:00,48.7,29.9,30.30,WNW,292,0.0,0.9,48,0.00,CLR,,0.00,0.0,WeatherDisplay:10.37,2014-09-23 07:18:00,
2014-09-23 03:23:00,48.6,29.7,30.30,WNW,292,1.4,2.3,48,0.00,CLR,,0.00,0.0,WeatherDisplay:10.37,2014-09-23 07:23:00,
2014-09-23 03:28:00,48.7,30.4,30.30,WNW,292,0.9,1.2,49,0.00,CLR,,0.00,0.0,WeatherDisplay:10.37,2014-09-23 07:28:00,
2014-09-23 03:33:00,48.6,30.2,30.30,WNW,292,1.6,2.3,49,0.00,CLR,,0.00,0.0,WeatherDisplay:10.37,2014-09-23 07:33:00,
2014-09-23 03:38:00,48.6,30.2,30.30,WNW,292,0.0,1.2,49,0.00,CLR,,0.00,0.0,WeatherDisplay:10.37,2014-09-23 07:38:00,
2014-09-23 03:43:00,48.6,30.2,30.30,WNW,292,0.0,0.0,49,0.00,CLR,,0.00,0.0,WeatherDisplay:10.37,2014-09-23 07:43:00,
2014-09-23 03:48:00,48.4,30.1,30.30,WNW,292,0.0,0.0,49,0.00,CLR,,0.00,0.0,WeatherDisplay:10.37,2014-09-23 07:48:00,
2014-09-23 03:53:00,48.4,30.1,30.30,WNW,292,0.0,0.0,49,0.00,CLR,,0.00,0.0,WeatherDisplay:10.37,2014-09-23 07:53:00,
2014-09-23 03:58:00,48.6,30.2,30.30,WNW,292,0.0,0.0,49,0.00,CLR,,0.00,0.0,WeatherDisplay:10.37,2014-09-23 07:58:00,
2014-09-23 04:03:00,48.4,30.1,30.30,WNW,292,0.0,0.0,49,0.00,CLR,,0.00,0.0,WeatherDisplay:10.37,2014-09-23 08:03:00,
2014-09-23 04:08:00,48.4,30.1,30.30,WNW,292,0.0,0.0,49,0.00,CLR,,0.00,0.0,WeatherDisplay:10.37,2014-09-23 08:08:00,
2014-09-23 04:13:00,48.2,29.9,30.30,WNW,292,0.0,0.0,49,0.00,CLR,,0.00,0.0,WeatherDisplay:10.37,2014-09-23 08:13:00,
2014-09-23 04:18:00,48.0,29.7,30.30,WNW,292,0.0,0.0,49,0.00,CLR,,0.00,0.0,WeatherDisplay:10.37,2014-09-23 08:18:00,
2014-09-23 04:23:00,48.0,29.7,30.30,WNW,292,0.0,0.0,49,0.00,CLR,,0.00,0.0,WeatherDisplay:10.37,2014-09-23 08:23:00,
2014-09-23 04:28:00,48.0,29.7,30.30,WNW,292,0.0,0.0,49,0.00,CLR,,0.00,0.0,WeatherDisplay:10.37,2014-09-23 08:28:00,
2014-09-23 04:33:00,47.8,30.1,30.30,WNW,292,0.0,0.0,50,0.00,CLR,,0.00,0.0,WeatherDisplay:10.37,2014-09-23 08:33:00,
2014-09-23 04:38:00,47.8,30.1,30.30,WNW,292,0.0,0.0,50,0.00,CLR,,0.00,0.0,WeatherDisplay:10.37,2014-09-23 08:38:00,
2014-09-23 04:43:00,47.8,30.1,30.30,WNW,292,0.0,0.0,50,0.00,CLR,,0.00,0.0,WeatherDisplay:10.37,2014-09-23 08:43:00,
2014-09-23 04:48:00,47.8,30.1,30.33,WNW,292,0.0,0.0,50,0.00,CLR,,0.00,0.0,WeatherDisplay:10.37,2014-09-23 08:48:00,
2014-09-23 04:53:00,47.8,30.1,30.33,WNW,292,0.0,0.0,50,0.00,CLR,,0.00,0.0,WeatherDisplay:10.37,2014-09-23 08:53:00,
2014-09-23 04:58:00,47.7,29.9,30.33,WNW,292,0.0,0.0,50,0.00,CLR,,0.00,0.0,WeatherDisplay:10.37,2014-09-23 08:58:00,
2014-09-23 05:03:00,47.7,29.9,30.30,WNW,292,0.0,0.0,50,0.00,CLR,,0.00,0.0,WeatherDisplay:10.37,2014-09-23 09:03:00,
2014-09-23 05:08:00,47.5,29.7,30.30,WNW,292,0.0,0.0,50,0.00,CLR,,0.00,0.0,WeatherDisplay:10.37,2014-09-23 09:08:00,
2014-09-23 05:13:00,47.5,29.7,30.30,WNW,292,0.0,0.0,50,0.00,CLR,,0.00,0.0,WeatherDisplay:10.37,2014-09-23 09:13:00,
2014-09-23 05:18:00,47.3,29.6,30.30,WNW,292,0.0,0.0,50,0.00,CLR,,0.00,0.0,WeatherDisplay:10.37,2014-09-23 09:18:00,
2014-09-23 05:20:00,47.3,29.6,30.30,WNW,292,0.0,0.0,50,0.00,CLR,,0.00,0.0,WeatherDisplay:10.37,2014-09-23 09:20:00,
2014-09-23 05:25:00,47.3,29.6,30.30,WNW,292,0.0,0.0,50,0.00,CLR,,0.00,0.0,WeatherDisplay:10.37,2014-09-23 09:25:00,
2014-09-23 05:30:00,47.1,29.4,30.30,WNW,292,0.0,0.0,50,0.00,CLR,,0.00,0.0,WeatherDisplay:10.37,2014-09-23 09:30:00,
2014-09-23 05:35:00,47.3,29.6,30.30,WNW,292,0.0,0.0,50,0.00,CLR,,0.00,0.0,WeatherDisplay:10.37,2014-09-23 09:35:00,
2014-09-23 05:40:00,47.3,29.6,30.30,WNW,292,0.0,0.0,50,0.00,CLR,,0.00,0.0,WeatherDisplay:10.37,2014-09-23 09:40:00,
2014-09-23 05:45:00,47.1,29.4,30.30,WNW,292,0.0,0.0,50,0.00,CLR,,0.00,0.0,WeatherDisplay:10.37,2014-09-23 09:45:00,
2014-09-23 05:50:00,46.9,29.2,30.30,WNW,292,0.0,0.0,50,0.00,CLR,,0.00,0.0,WeatherDisplay:10.37,2014-09-23 09:50:00,
2014-09-23 05:55:00,46.9,29.2,30.30,WNW,292,0.0,0.0,50,0.00,CLR,,0.00,0.0,WeatherDisplay:10.37,2014-09-23 09:55:00,
2014-09-23 06:00:00,46.9,29.2,30.30,WNW,292,0.0,0.0,50,0.00,CLR,,0.00,0.0,WeatherDisplay:10.37,2014-09-23 10:00:00,
2014-09-23 06:05:00,46.9,29.2,30.30,WNW,292,0.0,0.0,50,0.00,CLR,,0.00,0.0,WeatherDisplay:10.37,2014-09-23 10:05:00,
2014-09-23 06:10:00,46.9,29.2,30.30,WNW,292,0.9,1.2,50,0.00,CLR,,0.00,0.0,WeatherDisplay:10.37,2014-09-23 10:10:00,
2014-09-23 06:15:00,46.8,29.1,30.30,WNW,292,0.0,0.0,50,0.00,CLR,,0.00,0.0,WeatherDisplay:10.37,2014-09-23 10:15:00,
2014-09-23 06:20:00,46.8,29.6,30.30,WNW,292,0.0,0.0,51,0.00,CLR,,0.00,0.0,WeatherDisplay:10.37,2014-09-23 10:20:00,
2014-09-23 06:25:00,46.8,29.6,30.30,WNW,292,0.0,0.0,51,0.00,CLR,,0.00,0.0,WeatherDisplay:10.37,2014-09-23 10:25:00,
2014-09-23 06:30:00,46.8,29.6,30.30,WNW,292,0.0,0.0,51,0.00,CLR,,0.00,0.0,WeatherDisplay:10.37,2014-09-23 10:30:00,
2014-09-23 06:35:00,46.6,29.4,30.30,WNW,292,0.0,0.0,51,0.00,CLR,,0.00,0.0,WeatherDisplay:10.37,2014-09-23 10:35:00,
2014-09-23 06:40:00,46.6,29.4,30.30,WNW,292,0.0,0.0,51,0.00,CLR,,0.00,0.0,WeatherDisplay:10.37,2014-09-23 10:40:00,
2014-09-23 06:45:00,46.6,29.4,30.30,WNW,292,0.0,0.0,51,0.00,CLR,,0.00,0.0,WeatherDisplay:10.37,2014-09-23 10:45:00,
2014-09-23 06:50:00,46.6,29.4,30.33,WNW,292,0.0,0.0,51,0.00,CLR,,0.00,0.0,WeatherDisplay:10.37,2014-09-23 10:50:00,
2014-09-23 06:55:00,46.6,29.4,30.33,WNW,292,0.0,0.0,51,0.00,CLR,,0.00,0.0,WeatherDisplay:10.37,2014-09-23 10:55:00,
2014-09-23 07:00:00,46.6,29.4,30.33,WNW,292,0.0,0.0,51,0.00,CLR,,0.00,0.0,WeatherDisplay:10.37,2014-09-23 11:00:00,
2014-09-23 07:05:00,46.6,29.4,30.33,WNW,292,2.0,2.3,51,0.00,CLR,,0.00,0.0,WeatherDisplay:10.37,2014-09-23 11:05:00,
2014-09-23 07:10:00,46.4,29.2,30.33,WNW,292,0.0,0.0,51,0.00,CLR,,0.00,0.0,WeatherDisplay:10.37,2014-09-23 11:10:00,
2014-09-23 07:15:00,46.4,29.2,30.33,WNW,292,0.0,0.0,51,0.00,CLR,,0.00,0.0,WeatherDisplay:10.37,2014-09-23 11:15:00,
2014-09-23 07:20:00,46.4,29.2,30.33,WNW,292,0.0,0.0,51,0.00,CLR,,0.00,0.0,WeatherDisplay:10.37,2014-09-23 11:20:00,
2014-09-23 07:25:00,46.4,29.2,30.33,WNW,292,0.0,0.0,51,0.00,BKN,,0.00,0.0,WeatherDisplay:10.37,2014-09-23 11:25:00,
2014-09-23 07:30:00,46.4,29.2,30.33,WNW,292,0.0,0.0,51,0.00,BKN,,0.00,0.0,WeatherDisplay:10.37,2014-09-23 11:30:00,
2014-09-23 07:35:00,46.6,29.4,30.33,WNW,292,0.0,0.0,51,0.00,BKN,,0.00,0.0,WeatherDisplay:10.37,2014-09-23 11:35:00,
2014-09-23 07:40:00,46.6,29.9,30.33,WNW,292,0.0,0.0,52,0.00,BKN,,0.00,0.0,WeatherDisplay:10.37,2014-09-23 11:40:00,
2014-09-23 07:45:00,46.6,29.9,30.33,WNW,292,0.0,0.0,52,0.00,BKN,,0.00,0.0,WeatherDisplay:10.37,2014-09-23 11:45:00,
2014-09-23 07:50:00,46.6,29.9,30.33,WNW,292,0.0,0.0,52,0.00,BKN,,0.00,0.0,WeatherDisplay:10.37,2014-09-23 11:50:00,
2014-09-23 07:55:00,46.6,29.9,30.33,WNW,292,0.0,1.2,52,0.00,BKN,,0.00,0.0,WeatherDisplay:10.37,2014-09-23 11:55:00,
2014-09-23 08:00:00,46.8,30.0,30.33,WNW,292,0.0,0.0,52,0.00,BKN,,0.00,0.0,WeatherDisplay:10.37,2014-09-23 12:00:00,
2014-09-23 08:05:00,46.9,30.2,30.33,WNW,292,0.0,0.0,52,0.00,CLR,,0.00,0.0,WeatherDisplay:10.37,2014-09-23 12:05:00,
2014-09-23 08:10:00,46.9,30.2,30.33,WNW,292,0.0,0.0,52,0.00,CLR,,0.00,0.0,WeatherDisplay:10.37,2014-09-23 12:10:00,
2014-09-23 08:13:00,47.1,30.4,30.33,WNW,292,0.0,0.0,52,0.00,CLR,,0.00,0.0,WeatherDisplay:10.37,2014-09-23 12:13:00,
2014-09-23 08:18:00,47.3,30.5,30.33,WNW,292,0.0,1.2,52,0.00,CLR,,0.00,0.0,WeatherDisplay:10.37,2014-09-23 12:18:00,
2014-09-23 08:23:00,47.3,30.5,30.33,WNW,292,1.2,2.3,52,0.00,CLR,,0.00,0.0,WeatherDisplay:10.37,2014-09-23 12:23:00,
2014-09-23 08:28:00,47.5,31.2,30.33,West,270,1.6,2.3,53,0.00,CLR,,0.00,0.0,WeatherDisplay:10.37,2014-09-23 12:28:00,
2014-09-23 08:33:00,47.7,31.4,30.33,WSW,248,1.6,2.3,53,0.00,CLR,,0.00,0.0,WeatherDisplay:10.37,2014-09-23 12:33:00,
2014-09-23 08:38:00,47.8,31.5,30.33,SW,225,1.2,2.3,53,0.00,CLR,,0.00,0.0,WeatherDisplay:10.37,2014-09-23 12:38:00,
2014-09-23 08:43:00,48.2,31.9,30.33,WSW,248,1.6,2.3,53,0.00,CLR,,0.00,0.0,WeatherDisplay:10.37,2014-09-23 12:43:00,
2014-09-23 08:48:00,48.4,32.0,30.36,WSW,248,0.0,1.2,53,0.00,CLR,,0.00,0.0,WeatherDisplay:10.37,2014-09-23 12:48:00,
2014-09-23 08:53:00,48.6,32.2,30.36,West,270,1.2,1.2,53,0.00,CLR,,0.00,0.0,WeatherDisplay:10.37,2014-09-23 12:53:00,
2014-09-23 08:58:00,48.7,32.4,30.36,West,270,0.0,2.3,53,0.00,CLR,,0.00,0.0,WeatherDisplay:10.37,2014-09-23 12:58:00,
2014-09-23 09:03:00,49.1,33.2,30.36,WSW,248,2.2,2.3,54,0.00,CLR,,0.00,0.0,WeatherDisplay:10.37,2014-09-23 13:03:00,
2014-09-23 09:08:00,49.3,33.3,30.36,WSW,248,0.0,0.9,54,0.00,CLR,,0.00,0.0,WeatherDisplay:10.37,2014-09-23 13:08:00,
2014-09-23 09:13:00,49.8,33.8,30.36,WSW,248,1.4,2.2,54,0.00,CLR,,0.00,0.0,WeatherDisplay:10.37,2014-09-23 13:13:00,
2014-09-23 09:18:00,50.2,34.2,30.36,WSW,248,2.6,3.5,54,0.00,CLR,,0.00,0.0,WeatherDisplay:10.37,2014-09-23 13:18:00,
2014-09-23 09:23:00,50.4,34.3,30.36,WSW,248,1.6,2.3,54,0.00,CLR,,0.00,0.0,WeatherDisplay:10.37,2014-09-23 13:23:00,